HDA801 VHHX-ZSSS

Flight info

Callsign HDA801
Flight time 1h 54m
Altitude 37100
Route DOTMI A470 LJG B221 SUPAR SUP61A
Aircraft A320/M-SDE3FGHIRWY/LB1

Departure

Time 2026-05-06 10:19
Airport Hong Kong International Airport Kai Tak (VHHX)

Arrival

Time 2026-05-06 12:14
Airport Shanghai Hongqiao International Airport (ZSSS)
Time Latitude Longitude Altitude Speed Heading
2026-05-06 09:49 22.32520 114.19774 33 ft 0 kts 359°
2026-05-06 10:16 22.32524 114.19787 28 ft 3 kts 89°
2026-05-06 10:16 22.32496 114.19820 28 ft 8 kts 140°
2026-05-06 10:16 22.32442 114.19800 28 ft 10 kts 223°
2026-05-06 10:16 22.32386 114.19742 27 ft 12 kts 224°
2026-05-06 10:17 22.32325 114.19677 27 ft 12 kts 234°
2026-05-06 10:17 22.32366 114.19601 28 ft 14 kts 317°
2026-05-06 10:17 22.32441 114.19528 28 ft 15 kts 317°
2026-05-06 10:17 22.32520 114.19449 28 ft 14 kts 317°
2026-05-06 10:18 22.32565 114.19363 28 ft 14 kts 265°
2026-05-06 10:18 22.32519 114.19283 28 ft 12 kts 177°
2026-05-06 10:18 22.32478 114.19313 28 ft 0 kts 134°
2026-05-06 10:18 22.32454 114.19340 28 ft 27 kts 134°
2026-05-06 10:19 22.32153 114.19678 28 ft 94 kts 134°
2026-05-06 10:19 22.31573 114.20329 28 ft 144 kts 134°
2026-05-06 10:19 22.30810 114.21192 278 ft 164 kts 135°
2026-05-06 10:19 22.30011 114.22083 920 ft 164 kts 135°
2026-05-06 10:20 22.29215 114.22966 1619 ft 163 kts 133°
2026-05-06 10:20 22.28434 114.23843 2260 ft 163 kts 134°
2026-05-06 10:20 22.27638 114.24731 2795 ft 165 kts 134°
2026-05-06 10:20 22.26841 114.25617 3310 ft 169 kts 135°
2026-05-06 10:21 22.25969 114.26582 3556 ft 190 kts 135°
2026-05-06 10:21 22.24991 114.27666 3800 ft 213 kts 136°
2026-05-06 10:21 22.23907 114.28867 4151 ft 231 kts 137°
2026-05-06 10:21 22.22729 114.30172 4473 ft 255 kts 135°
2026-05-06 10:22 22.21446 114.31598 5002 ft 272 kts 136°
2026-05-06 10:22 22.20110 114.33085 5749 ft 279 kts 136°
2026-05-06 10:22 22.18748 114.34606 6539 ft 284 kts 136°
2026-05-06 10:22 22.17359 114.36157 7206 ft 288 kts 137°
2026-05-06 10:23 22.15960 114.37718 7990 ft 291 kts 136°
2026-05-06 10:23 22.14536 114.39302 8750 ft 295 kts 136°
2026-05-06 10:23 22.13115 114.40880 9484 ft 299 kts 137°
2026-05-06 10:23 22.11633 114.42526 10132 ft 306 kts 137°
2026-05-06 10:24 22.10114 114.44210 10307 ft 329 kts 136°
2026-05-06 10:24 22.08449 114.46057 10515 ft 348 kts 136°
2026-05-06 10:24 22.06798 114.47961 10992 ft 356 kts 130°
2026-05-06 10:24 22.05458 114.50231 11535 ft 363 kts 117°
2026-05-06 10:25 22.04615 114.52818 12087 ft 369 kts 103°
2026-05-06 10:25 22.04340 114.55578 12659 ft 373 kts 89°
2026-05-06 10:25 22.04397 114.58391 13253 ft 376 kts 88°
2026-05-06 10:25 22.04458 114.61220 13834 ft 380 kts 88°
2026-05-06 10:26 22.04515 114.64073 14330 ft 383 kts 88°
2026-05-06 10:26 22.04566 114.66952 14862 ft 386 kts 89°
2026-05-06 10:26 22.04616 114.69855 15370 ft 389 kts 89°
2026-05-06 10:26 22.04557 114.72779 15880 ft 391 kts 96°
2026-05-06 10:27 22.04106 114.75682 16396 ft 394 kts 101°
2026-05-06 10:27 22.03601 114.78588 16898 ft 397 kts 101°
2026-05-06 10:27 22.03096 114.81518 17418 ft 399 kts 101°
2026-05-06 10:27 22.02594 114.84472 17934 ft 402 kts 102°
2026-05-06 10:28 22.02092 114.87438 18402 ft 405 kts 101°
2026-05-06 10:28 22.01584 114.90433 18857 ft 407 kts 101°
2026-05-06 10:28 22.01075 114.93446 19290 ft 410 kts 101°
2026-05-06 10:28 22.00558 114.96484 19736 ft 413 kts 101°
2026-05-06 10:29 22.00034 114.99542 20190 ft 416 kts 101°
2026-05-06 10:29 21.99506 115.02621 20646 ft 419 kts 101°
2026-05-06 10:29 21.98981 115.05724 21102 ft 422 kts 101°
2026-05-06 10:29 21.98455 115.08851 21548 ft 426 kts 101°
2026-05-06 10:30 21.97925 115.11999 21977 ft 429 kts 101°
2026-05-06 10:30 21.97387 115.15170 22406 ft 433 kts 101°
2026-05-06 10:30 21.96839 115.18373 22830 ft 436 kts 101°
2026-05-06 10:30 21.96288 115.21590 23243 ft 439 kts 101°
2026-05-06 10:31 21.95727 115.24844 23620 ft 442 kts 101°
2026-05-06 10:31 21.95164 115.28102 23970 ft 445 kts 101°
2026-05-06 10:31 21.94790 115.30275 24198 ft 447 kts 101°
2026-05-06 10:31 21.94221 115.33577 24530 ft 449 kts 101°
2026-05-06 10:32 21.93649 115.36892 24887 ft 451 kts 101°
2026-05-06 10:32 21.92880 115.41344 25331 ft 454 kts 101°
2026-05-06 10:32 21.92496 115.43558 25541 ft 455 kts 101°
2026-05-06 10:32 21.91911 115.46925 25873 ft 458 kts 101°
2026-05-06 10:33 21.91326 115.50301 26190 ft 460 kts 101°
2026-05-06 10:33 21.90735 115.53697 26505 ft 462 kts 101°
2026-05-06 10:33 21.90144 115.57104 26808 ft 465 kts 101°
2026-05-06 10:33 21.89548 115.60530 27108 ft 467 kts 101°
2026-05-06 10:34 21.88753 115.65097 27483 ft 470 kts 101°
2026-05-06 10:34 21.88343 115.67440 27684 ft 472 kts 101°
2026-05-06 10:34 21.87728 115.70920 27978 ft 474 kts 101°
2026-05-06 10:34 21.87107 115.74410 28271 ft 476 kts 101°
2026-05-06 10:35 21.86496 115.77926 28575 ft 479 kts 99°
2026-05-06 10:35 21.86298 115.81500 28867 ft 481 kts 86°
2026-05-06 10:35 21.86836 115.85058 29157 ft 482 kts 71°
2026-05-06 10:35 21.88213 115.88317 29444 ft 480 kts 54°
2026-05-06 10:36 21.90388 115.91015 29735 ft 476 kts 37°
2026-05-06 10:36 21.93149 115.92937 30004 ft 472 kts 21°
2026-05-06 10:36 21.96245 115.94057 30242 ft 469 kts 12°
2026-05-06 10:36 21.99392 115.94981 30533 ft 469 kts 12°
2026-05-06 10:37 22.02538 115.95916 30899 ft 468 kts 12°
2026-05-06 10:37 22.05673 115.96860 31283 ft 467 kts 12°
2026-05-06 10:37 22.08792 115.97807 31678 ft 465 kts 12°
2026-05-06 10:37 22.11908 115.98754 32082 ft 464 kts 12°
2026-05-06 10:38 22.15004 115.99690 32489 ft 462 kts 12°
2026-05-06 10:38 22.18104 116.00623 32911 ft 461 kts 12°
2026-05-06 10:38 22.21182 116.01545 33327 ft 459 kts 12°
2026-05-06 10:38 22.24216 116.02454 33733 ft 458 kts 12°
2026-05-06 10:39 22.27277 116.03375 34132 ft 456 kts 12°
2026-05-06 10:39 22.30330 116.04295 34494 ft 454 kts 12°
2026-05-06 10:39 22.33372 116.05210 34841 ft 453 kts 12°
2026-05-06 10:39 22.36398 116.06118 35178 ft 452 kts 12°
2026-05-06 10:40 22.39421 116.07026 35510 ft 450 kts 12°
2026-05-06 10:40 22.42437 116.07934 35836 ft 449 kts 12°
2026-05-06 10:40 22.45440 116.08840 36162 ft 448 kts 11°
2026-05-06 10:40 22.48431 116.09743 36480 ft 446 kts 11°
2026-05-06 10:41 22.51417 116.10648 36793 ft 445 kts 11°
2026-05-06 10:41 22.54398 116.11549 37016 ft 445 kts 11°
2026-05-06 10:41 22.60387 116.13356 37061 ft 448 kts 11°
2026-05-06 10:42 22.66401 116.15176 37059 ft 449 kts 11°
2026-05-06 10:42 22.72290 116.17501 37059 ft 456 kts 25°
2026-05-06 10:43 22.77507 116.21506 37065 ft 462 kts 33°
2026-05-06 10:44 22.85172 116.27870 37068 ft 463 kts 33°
2026-05-06 10:44 22.90279 116.32117 37071 ft 463 kts 33°
2026-05-06 10:45 22.95391 116.36374 37075 ft 463 kts 33°
2026-05-06 10:45 23.00471 116.40590 37074 ft 463 kts 33°
2026-05-06 10:46 23.05603 116.44814 37072 ft 463 kts 32°
2026-05-06 10:46 23.10733 116.49031 37073 ft 463 kts 33°
2026-05-06 10:47 23.15860 116.53279 37074 ft 463 kts 33°
2026-05-06 10:47 23.20981 116.57531 37074 ft 463 kts 33°
2026-05-06 10:48 23.26103 116.61775 37087 ft 463 kts 33°
2026-05-06 10:48 23.31232 116.66032 37086 ft 463 kts 33°
2026-05-06 10:49 23.36351 116.70289 37083 ft 463 kts 33°
2026-05-06 10:49 23.41473 116.74549 37082 ft 463 kts 33°
2026-05-06 10:50 23.46302 116.79239 37081 ft 469 kts 42°
2026-05-06 10:50 23.50813 116.84368 37091 ft 469 kts 41°
2026-05-06 10:51 23.55327 116.89487 37085 ft 469 kts 41°
2026-05-06 10:51 23.59845 116.94614 37084 ft 469 kts 41°
2026-05-06 10:52 23.64358 116.99750 37083 ft 469 kts 41°
2026-05-06 10:52 23.68870 117.04884 37082 ft 469 kts 41°
2026-05-06 10:53 23.73383 117.10030 37097 ft 469 kts 41°
2026-05-06 10:53 23.77917 117.15136 37097 ft 468 kts 39°
2026-05-06 10:54 23.82707 117.19906 37086 ft 465 kts 36°
2026-05-06 10:54 23.87624 117.24510 37086 ft 465 kts 36°
2026-05-06 10:55 23.92470 117.29128 37081 ft 466 kts 37°
2026-05-06 10:55 23.97299 117.33865 37097 ft 466 kts 37°
2026-05-06 10:56 24.02116 117.38618 37085 ft 466 kts 37°
2026-05-06 10:56 24.06937 117.43360 37068 ft 467 kts 37°
2026-05-06 10:57 24.11771 117.48100 37067 ft 467 kts 37°
2026-05-06 10:57 24.16371 117.53157 37065 ft 470 kts 43°
2026-05-06 10:58 24.20777 117.58453 37074 ft 470 kts 43°
2026-05-06 10:58 24.25179 117.63746 37070 ft 470 kts 43°
2026-05-06 10:59 24.29592 117.69048 37067 ft 470 kts 43°
2026-05-06 10:59 24.34001 117.74341 37069 ft 470 kts 43°
2026-05-06 11:00 24.38417 117.79649 37062 ft 471 kts 43°
2026-05-06 11:00 24.42820 117.84954 37083 ft 471 kts 43°
2026-05-06 11:01 24.47228 117.90274 37075 ft 471 kts 43°
2026-05-06 11:01 24.51637 117.95598 37072 ft 471 kts 43°
2026-05-06 11:02 24.56036 118.00926 37072 ft 471 kts 43°
2026-05-06 11:02 24.60509 118.06182 37073 ft 470 kts 41°
2026-05-06 11:03 24.65063 118.11269 37093 ft 469 kts 40°
2026-05-06 11:03 24.69641 118.16386 37085 ft 470 kts 40°
2026-05-06 11:04 24.74188 118.21553 37082 ft 470 kts 41°
2026-05-06 11:04 24.78718 118.26735 37080 ft 470 kts 41°
2026-05-06 11:05 24.83250 118.31923 37082 ft 470 kts 41°
2026-05-06 11:05 24.87782 118.37105 37095 ft 470 kts 41°
2026-05-06 11:06 24.92318 118.42291 37093 ft 470 kts 41°
2026-05-06 11:06 24.96849 118.47481 37093 ft 470 kts 41°
2026-05-06 11:07 25.01370 118.52663 37095 ft 470 kts 41°
2026-05-06 11:07 25.05901 118.57863 37096 ft 469 kts 41°
2026-05-06 11:08 25.10414 118.63059 37112 ft 470 kts 41°
2026-05-06 11:08 25.14856 118.68367 37109 ft 471 kts 43°
2026-05-06 11:09 25.19239 118.73726 37114 ft 470 kts 43°
2026-05-06 11:09 25.23598 118.79047 37107 ft 470 kts 43°
2026-05-06 11:10 25.28006 118.84371 37107 ft 470 kts 42°
2026-05-06 11:10 25.32422 118.89689 37110 ft 470 kts 43°
2026-05-06 11:11 25.36845 118.95008 37120 ft 469 kts 42°
2026-05-06 11:11 25.41330 119.00245 37110 ft 468 kts 41°
2026-05-06 11:12 25.45833 119.05440 37115 ft 468 kts 41°
2026-05-06 11:12 25.50321 119.10658 37106 ft 468 kts 41°
2026-05-06 11:13 25.54790 119.15896 37129 ft 468 kts 41°
2026-05-06 11:13 25.59255 119.21144 37113 ft 468 kts 41°
2026-05-06 11:14 25.63716 119.26387 37120 ft 467 kts 41°
2026-05-06 11:14 25.68144 119.31584 37108 ft 467 kts 41°
2026-05-06 11:15 25.72760 119.36599 37112 ft 460 kts 31°
2026-05-06 11:15 25.78268 119.39933 37122 ft 445 kts 13°
2026-05-06 11:16 25.84161 119.41936 37106 ft 443 kts 12°
2026-05-06 11:16 25.90066 119.43941 37104 ft 444 kts 12°
2026-05-06 11:17 25.95975 119.45952 37101 ft 444 kts 12°
2026-05-06 11:17 26.01886 119.47962 37124 ft 444 kts 12°
2026-05-06 11:18 26.07799 119.49972 37120 ft 445 kts 12°
2026-05-06 11:18 26.13717 119.51992 37119 ft 445 kts 12°
2026-05-06 11:19 26.19626 119.54021 37119 ft 445 kts 13°
2026-05-06 11:19 26.25244 119.57082 37128 ft 455 kts 27°
2026-05-06 11:20 26.30566 119.60814 37120 ft 455 kts 27°
2026-05-06 11:20 26.35925 119.64572 37118 ft 455 kts 27°
2026-05-06 11:21 26.41298 119.68320 37122 ft 455 kts 27°
2026-05-06 11:21 26.46662 119.72077 37121 ft 456 kts 27°
2026-05-06 11:22 26.52035 119.75853 37133 ft 456 kts 27°
2026-05-06 11:22 26.57398 119.79619 37129 ft 456 kts 27°
2026-05-06 11:23 26.61899 119.82784 37123 ft 456 kts 27°
2026-05-06 11:23 26.67237 119.86537 37125 ft 456 kts 27°
2026-05-06 11:24 26.72603 119.90315 37133 ft 456 kts 27°
2026-05-06 11:24 26.77976 119.94101 37133 ft 457 kts 27°
2026-05-06 11:25 26.83348 119.97900 37139 ft 457 kts 27°
2026-05-06 11:25 26.88719 120.01700 37136 ft 457 kts 27°
2026-05-06 11:26 26.94090 120.05500 37146 ft 457 kts 27°
2026-05-06 11:26 26.99469 120.09315 37139 ft 457 kts 27°
2026-05-06 11:27 27.04838 120.13128 37135 ft 457 kts 27°
2026-05-06 11:27 27.10210 120.16948 37136 ft 457 kts 27°
2026-05-06 11:28 27.15587 120.20769 37151 ft 457 kts 27°
2026-05-06 11:28 27.20975 120.24569 37145 ft 457 kts 27°
2026-05-06 11:29 27.26332 120.28346 37140 ft 457 kts 27°
2026-05-06 11:29 27.31722 120.32149 37136 ft 458 kts 27°
2026-05-06 11:30 27.37115 120.35965 37138 ft 458 kts 27°
2026-05-06 11:30 27.42487 120.39794 37140 ft 458 kts 27°
2026-05-06 11:31 27.47872 120.43637 37138 ft 458 kts 27°
2026-05-06 11:31 27.53273 120.47465 37136 ft 458 kts 27°
2026-05-06 11:32 27.58669 120.51299 37135 ft 459 kts 27°
2026-05-06 11:32 27.64061 120.55155 37133 ft 459 kts 27°
2026-05-06 11:33 27.69448 120.59016 37133 ft 459 kts 27°
2026-05-06 11:33 27.75045 120.62327 37134 ft 449 kts 13°
2026-05-06 11:34 27.81080 120.63563 37134 ft 439 kts 359°
2026-05-06 11:34 27.87171 120.64115 37140 ft 439 kts 360°
2026-05-06 11:35 27.93268 120.64685 37138 ft 440 kts 360°
2026-05-06 11:35 27.99373 120.65263 37139 ft 440 kts 360°
2026-05-06 11:36 28.05473 120.65842 37139 ft 440 kts 360°
2026-05-06 11:36 28.11589 120.66437 37148 ft 441 kts
2026-05-06 11:37 28.17660 120.67039 37146 ft 441 kts
2026-05-06 11:37 28.23774 120.67635 37145 ft 441 kts
2026-05-06 11:38 28.29889 120.68237 37137 ft 441 kts
2026-05-06 11:38 28.36002 120.68838 37144 ft 441 kts
2026-05-06 11:39 28.42116 120.69435 37136 ft 441 kts
2026-05-06 11:39 28.48239 120.70043 37138 ft 442 kts
2026-05-06 11:40 28.54354 120.70665 37129 ft 442 kts
2026-05-06 11:40 28.60477 120.71287 37144 ft 442 kts
2026-05-06 11:41 28.66597 120.71903 37126 ft 441 kts
2026-05-06 11:41 28.72680 120.72525 37121 ft 442 kts
2026-05-06 11:42 28.78800 120.73200 37119 ft 442 kts
2026-05-06 11:42 28.84923 120.73890 37129 ft 442 kts
2026-05-06 11:43 28.91058 120.74554 37119 ft 443 kts
2026-05-06 11:43 28.97194 120.75181 37116 ft 443 kts
2026-05-06 11:44 29.06406 120.76114 37121 ft 443 kts
2026-05-06 11:44 29.12545 120.76746 37107 ft 443 kts
2026-05-06 11:45 29.18691 120.77376 37108 ft 443 kts
2026-05-06 11:45 29.24838 120.78003 37099 ft 444 kts
2026-05-06 11:46 29.30987 120.78638 37101 ft 444 kts
2026-05-06 11:46 29.37143 120.79290 37092 ft 444 kts
2026-05-06 11:47 29.43304 120.79934 36682 ft 444 kts
2026-05-06 11:47 29.46384 120.80249 36015 ft 445 kts
2026-05-06 11:47 29.49432 120.80559 35305 ft 447 kts
2026-05-06 11:48 29.52542 120.80879 34522 ft 451 kts
2026-05-06 11:48 29.55679 120.81202 33726 ft 454 kts
2026-05-06 11:48 29.58816 120.81527 33209 ft 449 kts
2026-05-06 11:48 29.61916 120.81852 32651 ft 446 kts
2026-05-06 11:49 29.64992 120.82168 32113 ft 443 kts 360°
2026-05-06 11:49 29.68060 120.82470 31561 ft 440 kts 359°
2026-05-06 11:49 29.71104 120.82761 31008 ft 438 kts 359°
2026-05-06 11:49 29.74130 120.83049 30465 ft 435 kts 359°
2026-05-06 11:50 29.77136 120.83338 29904 ft 434 kts 358°
2026-05-06 11:50 29.80138 120.83630 29334 ft 431 kts 358°
2026-05-06 11:50 29.83114 120.83922 28788 ft 428 kts 359°
2026-05-06 11:50 29.86068 120.84211 28262 ft 425 kts 359°
2026-05-06 11:51 29.89002 120.84497 27741 ft 422 kts 359°
2026-05-06 11:51 29.91925 120.84782 27236 ft 419 kts 359°
2026-05-06 11:51 29.94821 120.85066 26741 ft 417 kts 359°
2026-05-06 11:51 29.97705 120.85349 26249 ft 415 kts 359°
2026-05-06 11:52 30.00580 120.85638 25775 ft 414 kts
2026-05-06 11:52 30.03419 120.86307 25304 ft 419 kts 13°
2026-05-06 11:52 30.06166 120.87469 24839 ft 420 kts 17°
2026-05-06 11:52 30.08895 120.88667 24371 ft 419 kts 17°
2026-05-06 11:53 30.11624 120.89857 23900 ft 419 kts 17°
2026-05-06 11:53 30.14348 120.91039 23412 ft 419 kts 17°
2026-05-06 11:53 30.17078 120.92222 22885 ft 418 kts 17°
2026-05-06 11:53 30.19800 120.93402 22397 ft 416 kts 17°
2026-05-06 11:54 30.22502 120.94577 21902 ft 415 kts 17°
2026-05-06 11:54 30.25198 120.95754 21396 ft 413 kts 17°
2026-05-06 11:54 30.27884 120.96930 20876 ft 412 kts 17°
2026-05-06 11:54 30.30525 120.98084 20355 ft 411 kts 17°
2026-05-06 11:55 30.33226 120.99264 19816 ft 410 kts 17°
2026-05-06 11:55 30.35879 121.00422 19345 ft 407 kts 17°
2026-05-06 11:55 30.38488 121.01561 18948 ft 402 kts 17°
2026-05-06 11:55 30.41089 121.02698 18477 ft 399 kts 17°
2026-05-06 11:56 30.43688 121.03836 17958 ft 397 kts 17°
2026-05-06 11:56 30.46263 121.04964 17416 ft 394 kts 18°
2026-05-06 11:56 30.48817 121.06086 16893 ft 391 kts 18°
2026-05-06 11:56 30.51340 121.07196 16381 ft 387 kts 18°
2026-05-06 11:57 30.53854 121.08301 15885 ft 384 kts 18°
2026-05-06 11:57 30.56339 121.09392 15393 ft 380 kts 18°
2026-05-06 11:57 30.58800 121.10472 14914 ft 377 kts 18°
2026-05-06 11:57 30.61245 121.11544 14439 ft 373 kts 19°
2026-05-06 11:58 30.63663 121.12603 13971 ft 370 kts 19°
2026-05-06 11:58 30.66064 121.13657 13467 ft 367 kts 19°
2026-05-06 11:58 30.68440 121.14702 12955 ft 364 kts 19°
2026-05-06 11:58 30.70797 121.15740 12425 ft 361 kts 19°
2026-05-06 11:59 30.73138 121.16770 11887 ft 359 kts 19°
2026-05-06 11:59 30.75446 121.17786 11445 ft 355 kts 19°
2026-05-06 11:59 30.77751 121.18805 10950 ft 353 kts 19°
2026-05-06 11:59 30.80045 121.19818 10474 ft 350 kts 19°
2026-05-06 12:00 30.82312 121.20817 10157 ft 343 kts 19°
2026-05-06 12:00 30.84436 121.21948 10036 ft 331 kts 31°
2026-05-06 12:00 30.86198 121.23591 9923 ft 320 kts 44°
2026-05-06 12:00 30.87762 121.25383 9729 ft 312 kts 44°
2026-05-06 12:01 30.89297 121.27133 9303 ft 308 kts 44°
2026-05-06 12:01 30.90820 121.28864 8864 ft 304 kts 44°
2026-05-06 12:01 30.92445 121.30425 8418 ft 301 kts 30°
2026-05-06 12:01 30.94327 121.31429 7978 ft 297 kts 14°
2026-05-06 12:02 30.96333 121.31857 7629 ft 292 kts
2026-05-06 12:02 30.98334 121.32138 7414 ft 288 kts
2026-05-06 12:02 31.00318 121.32423 7226 ft 287 kts
2026-05-06 12:02 31.02297 121.32708 7041 ft 286 kts
2026-05-06 12:03 31.04272 121.32991 6854 ft 285 kts
2026-05-06 12:03 31.06234 121.33276 6675 ft 284 kts
2026-05-06 12:03 31.08197 121.33562 6495 ft 283 kts
2026-05-06 12:03 31.10137 121.33702 6311 ft 280 kts 353°
2026-05-06 12:04 31.11998 121.33210 6136 ft 276 kts 335°
2026-05-06 12:04 31.13633 121.32097 5949 ft 272 kts 318°
2026-05-06 12:04 31.14901 121.30522 5776 ft 270 kts 307°
2026-05-06 12:04 31.16078 121.28818 5599 ft 270 kts 307°
2026-05-06 12:05 31.17264 121.27118 5425 ft 270 kts 307°
2026-05-06 12:05 31.18446 121.25432 5253 ft 269 kts 307°
2026-05-06 12:05 31.19785 121.23894 5079 ft 271 kts 322°
2026-05-06 12:05 31.21460 121.22897 4925 ft 275 kts 340°
2026-05-06 12:06 31.23355 121.22538 4719 ft 277 kts 356°
2026-05-06 12:06 31.25281 121.22445 4530 ft 277 kts 356°
2026-05-06 12:06 31.27211 121.22345 4346 ft 278 kts 356°
2026-05-06 12:06 31.29137 121.22243 4169 ft 274 kts 356°
2026-05-06 12:07 31.31014 121.22140 3988 ft 267 kts 355°
2026-05-06 12:07 31.32847 121.22038 3812 ft 260 kts 355°
2026-05-06 12:07 31.34622 121.21940 3640 ft 249 kts 355°
2026-05-06 12:07 31.36290 121.22081 3486 ft 238 kts 19°
2026-05-06 12:08 31.37618 121.23139 3335 ft 229 kts 53°
2026-05-06 12:08 31.38227 121.24786 3159 ft 216 kts 87°
2026-05-06 12:08 31.38263 121.26497 3015 ft 206 kts 93°
2026-05-06 12:08 31.38270 121.28144 2872 ft 199 kts 93°
2026-05-06 12:09 31.38279 121.29744 2744 ft 195 kts 93°
2026-05-06 12:09 31.38141 121.31272 2527 ft 186 kts 116°
2026-05-06 12:09 31.37346 121.32391 2229 ft 178 kts 152°
2026-05-06 12:09 31.36177 121.32749 1968 ft 174 kts 177°
2026-05-06 12:10 31.34978 121.32809 1839 ft 173 kts 177°
2026-05-06 12:10 31.33806 121.32870 1805 ft 161 kts 177°
2026-05-06 12:10 31.32712 121.32929 1801 ft 155 kts 177°
2026-05-06 12:10 31.31660 121.32985 1809 ft 142 kts 177°
2026-05-06 12:11 31.30701 121.33037 1754 ft 135 kts 177°
2026-05-06 12:11 31.29770 121.33088 1632 ft 133 kts 176°
2026-05-06 12:11 31.28852 121.33137 1469 ft 132 kts 176°
2026-05-06 12:11 31.27943 121.33187 1309 ft 130 kts 175°
2026-05-06 12:12 31.27039 121.33236 1133 ft 130 kts 176°
2026-05-06 12:12 31.26141 121.33284 968 ft 129 kts 176°
2026-05-06 12:12 31.25231 121.33336 785 ft 133 kts 175°
2026-05-06 12:12 31.24311 121.33384 610 ft 131 kts 176°
2026-05-06 12:13 31.23406 121.33434 450 ft 133 kts 176°
2026-05-06 12:13 31.22477 121.33480 308 ft 135 kts 177°
2026-05-06 12:13 31.21553 121.33530 143 ft 132 kts 176°
2026-05-06 12:13 31.20650 121.33587 23 ft 121 kts 179°
2026-05-06 12:14 31.20151 121.33610 17 ft 92 kts 178°
2026-05-06 12:14 31.19679 121.33636 20 ft 43 kts 178°
2026-05-06 12:14 31.19478 121.33647 21 ft 26 kts 177°
2026-05-06 12:14 31.19300 121.33692 22 ft 26 kts 158°
2026-05-06 12:15 31.19118 121.33821 19 ft 10 kts 149°
2026-05-06 12:15 31.19083 121.33855 19 ft 11 kts 114°
2026-05-06 12:15 31.19128 121.33917 19 ft 13 kts
2026-05-06 12:15 31.19226 121.33913 19 ft 15 kts 357°
2026-05-06 12:16 31.19340 121.33906 19 ft 17 kts 357°
2026-05-06 12:16 31.19467 121.33900 19 ft 19 kts 357°
2026-05-06 12:16 31.19575 121.33893 19 ft 11 kts 358°
2026-05-06 12:16 31.19619 121.33948 19 ft 11 kts 74°
2026-05-06 12:17 31.19642 121.34001 19 ft 7 kts 86°
2026-05-06 12:17 31.19644 121.34057 19 ft 4 kts 87°
2026-05-06 12:17 31.19645 121.34065 19 ft 0 kts 87°